Location: Kapuskasing
(49.3803°N, 82.4001°W)
Time: 11:08:27
(UTC-04:00)

Envisat - Pass Details

Date: 17 March 2026
Orbit: 761 x 762 km, 98.4° (Epoch: 19 April)

Event Time Altitude Azimuth Distance (km) Brightness Sun altitude
Rises 05:46:28 0° 4° (N) 3,238 6.6 -18.7°
Reaches altitude 10° 05:49:18 10° 348° (NNW) 2,307 5.6 -18.3°
Maximum altitude 05:52:56 20° 302° (WNW) 1,696 4.4 -17.7°
Enters shadow 05:53:21 20° 295° (WNW) 1,704 4.4 -17.7°
